Back to catalog

STARLINK-31037

AliveCommunicationsVLEO
NORAD 58536·PAYLOAD·🇺🇸 United States

Launched Dec 8, 2023 from Vandenberg Space Force Base

Loading…

Next Passes (next 24 hours)

TLE

FreshSource: CelesTrak SupGP

Epoch: Sep 14, 2026, 21:24 UTC

1 58536C 23192F   26257.89215278  .00047348  00000+0  13991-2 0  2575
2 58536  53.1577 260.1589 0001139  91.7540   7.9797 15.34362468    10

Track STARLINK-31037 in real time with AllMySat

Download on the App Store